EDRS-C

Last updated on Thu Oct 16 2025 00:02:49 GMT+0000 (Coordinated Universal Time)

1 44475U 19049A 25288.55047358 -.00000276 00000+0 00000+0 0 9993 2 44475 0.0451 102.9404 0001283 103.6305 158.4543 1.00271783 22753
UTC large
Height (km)
Speed (km/s)
/
Latitude / Longitude
Inclination (degrees)
Orbital Period (minutes)
Azimuth
Elevation
Range (km)
Doppler Factor

Next 0 passes for location: London (51.5072 / 0.1276)

Sorry there are no passes over London.